カタログに戻る

THOR AGENA B R/B

運用中PO
NORAD 426·ROCKET BODY·🇺🇸 United States

打ち上げ Sep 29, 1962 から Vandenberg Space Force Base

Loading…

次のパス (今後24時間)

TLE

最新Source: Space-Track

元期: Sep 9, 2026, 22:36 UTC

1 00426U 62049B   26252.94196646  .00000034  00000-0  29387-4 0  9995
2 00426  80.4729 184.3713 0018309  13.1943  58.5383 13.68767609191728

AllMySatでTHOR AGENA B R/Bをリアルタイム追跡

Download on the App Store